Harlan, IA

9:56 AM CST on December 09, 2019 (GMT -0600)
Harlan Municipal

Weather History for KHNR - November, 2019

Change the Weather History Date:

Tuesday, November 19, 2019

  Actual Average Record
Temperature  
Mean Temperature 45 °F -  
Max Temperature 57 °F 47 °F 69 °F (2007)
Min Temperature 33 °F 27 °F 10 °F (1978)
Degree Days  
Heating Degree Days 20    
Moisture  
Dew Point 34 °F    
Average Humidity 75    
Maximum Humidity 100    
Minimum Humidity 33    
Precipitation  
Precipitation 0.00 in - - ()
Sea Level Pressure  
Sea Level Pressure 29.87 in    
Wind  
Wind Speed 7 mph ()    
Max Wind Speed 14 mph    
Max Gust Speed 12 mph    
Visibility 10.0 miles    
Events      
Averages and records for this station are not official NWS values.
T = Trace of Precipitation, MM = Missing Value Source: Averaged Metar Reports

Daily Weather History Graph

Daily Weather History Graph

Search for Another Location

Airport or City:

Astronomy

Nov. 19, 2019 Rise Set
Actual Time 7:14 AM CST 4:58 PM CST
Civil Twilight 6:44 AM CST 5:28 PM CST
Nautical Twilight 6:10 AM CST 6:02 PM CST
Astronomical Twilight 5:37 AM CST 6:35 PM CST
Moon 11:56 PM CST (11/19) 1:25 PM CST (11/19)
Length of Visible Light 10h 43m
Length of Day
9h 43m
Waning Gibbous, 51% of the Moon is Illuminated
Nov 19
Waning Gibbous
Nov 19
Last Quarter
Nov 26
New
Dec 4
First Quarter
Dec 11
Full

Hourly Weather History & Observations

Time (CST) Temp. Windchill Dew Point Humidity Pressure Visibility Wind Dir Wind Speed Gust Speed Precip Events Conditions
12:15 AM 42.8 °F 35.8 °F 41.0 °F 93% 29.76 in 10.0 mi NW 13.8 mph - N/A   Clear
12:35 AM 42.8 °F 36.2 °F 41.0 °F 93% 29.76 in 10.0 mi NW 12.7 mph - N/A   Clear
12:55 AM 41.0 °F 34.3 °F 41.0 °F 100% 29.76 in 10.0 mi NW 11.5 mph - N/A   Clear
1:15 AM 41.0 °F 34.3 °F 39.2 °F 93% 29.76 in 10.0 mi NW 11.5 mph - N/A   Clear
1:35 AM 39.2 °F 31.6 °F 39.2 °F 100% 29.77 in 10.0 mi NW 12.7 mph - N/A   Clear
1:55 AM 39.2 °F 31.6 °F 39.2 °F 100% 29.77 in 10.0 mi WNW 12.7 mph - N/A   Clear
2:35 AM 37.4 °F 32.1 °F 37.4 °F 100% 29.78 in 10.0 mi West 6.9 mph - N/A   Clear
2:55 AM 35.6 °F 31.7 °F 35.6 °F 100% 29.79 in 10.0 mi West 4.6 mph - N/A   Clear
3:15 AM 35.6 °F 29.9 °F 35.6 °F 100% 29.78 in 10.0 mi West 6.9 mph - N/A   Clear
3:35 AM 35.6 °F 28.6 °F 35.6 °F 100% 29.78 in 10.0 mi West 9.2 mph - N/A   Clear
4:15 AM 33.8 °F - 33.8 °F 100% 29.79 in 10.0 mi Calm Calm - N/A   Clear
4:35 AM 35.6 °F - 35.6 °F 100% 29.79 in 10.0 mi Calm Calm - N/A   Clear
4:55 AM 35.6 °F 29.2 °F 35.6 °F 100% 29.80 in 10.0 mi WNW 8.1 mph - N/A   Clear
5:15 AM 35.6 °F 28.0 °F 35.6 °F 100% 29.80 in 10.0 mi West 10.4 mph - N/A   Clear
5:55 AM 35.6 °F 29.2 °F 35.6 °F 100% 29.82 in 10.0 mi WNW 8.1 mph - N/A   Clear
6:15 AM 35.6 °F 29.9 °F 35.6 °F 100% 29.82 in 10.0 mi WNW 6.9 mph - N/A   Clear
6:35 AM 35.6 °F 30.7 °F 35.6 °F 100% 29.83 in 10.0 mi Variable 5.8 mph - N/A   Clear
6:55 AM 33.8 °F - 33.8 °F 100% 29.84 in 10.0 mi Calm Calm - N/A   Clear
7:15 AM 33.8 °F - 33.8 °F 100% 29.85 in 10.0 mi Calm Calm - N/A   Clear
7:35 AM 33.8 °F - 33.8 °F 100% 29.86 in 10.0 mi Calm Calm - N/A   Clear
7:55 AM 33.8 °F - 33.8 °F 100% 29.86 in 10.0 mi Calm Calm - N/A   Clear
8:15 AM 35.6 °F 31.7 °F 35.6 °F 100% 29.87 in 10.0 mi WNW 4.6 mph - N/A   Clear
8:55 AM 41.0 °F 34.7 °F 37.4 °F 87% 29.89 in 10.0 mi WNW 10.4 mph - N/A   Clear
9:15 AM 42.8 °F 36.2 °F 37.4 °F 81% 29.89 in 10.0 mi WNW 12.7 mph - N/A   Clear
9:35 AM 42.8 °F 35.8 °F 37.4 °F 81% 29.90 in 10.0 mi WNW 13.8 mph - N/A   Clear
9:55 AM 44.6 °F 38.8 °F 39.2 °F 81% 29.90 in 10.0 mi WNW 11.5 mph - N/A   Clear
10:15 AM 46.4 °F 40.7 °F 39.2 °F 76% 29.90 in 10.0 mi WNW 12.7 mph - N/A   Clear
10:35 AM 46.4 °F 40.7 °F 39.2 °F 76% 29.90 in 10.0 mi WNW 12.7 mph - N/A   Clear
10:55 AM 48.2 °F - 39.2 °F 71% 29.91 in 10.0 mi WNW 10.4 mph - N/A   Clear
11:15 AM 48.2 °F - 39.2 °F 71% 29.90 in 10.0 mi WNW 9.2 mph - N/A   Clear
11:35 AM 50.0 °F - 37.4 °F 62% 29.90 in 10.0 mi WNW 9.2 mph - N/A   Clear
11:55 AM 51.8 °F - 37.4 °F 58% 29.89 in 10.0 mi West 9.2 mph - N/A   Clear
12:15 PM 51.8 °F - 35.6 °F 54% 29.89 in 10.0 mi West 10.4 mph - N/A   Clear
12:35 PM 53.6 °F - 33.8 °F 47% 29.89 in 10.0 mi West 10.4 mph - N/A   Clear
12:55 PM 53.6 °F - 32.0 °F 44% 29.88 in 10.0 mi WNW 9.2 mph - N/A   Clear
1:15 PM 55.4 °F - 30.2 °F 38% 29.88 in 10.0 mi NW 8.1 mph - N/A   Clear
1:35 PM 55.4 °F - 30.2 °F 38% 29.88 in 10.0 mi WNW 11.5 mph - N/A   Clear
1:55 PM 55.4 °F - 30.2 °F 38% 29.88 in 10.0 mi NW 10.4 mph - N/A   Clear
2:15 PM 55.4 °F - 28.4 °F 36% 29.88 in 10.0 mi WNW 10.4 mph - N/A   Clear
2:35 PM 57.2 °F - 28.4 °F 33% 29.88 in 10.0 mi NW 6.9 mph - N/A   Clear
2:55 PM 57.2 °F - 28.4 °F 33% 29.88 in 10.0 mi NW 6.9 mph - N/A   Clear
3:15 PM 57.2 °F - 28.4 °F 33% 29.89 in 10.0 mi WNW 5.8 mph - N/A   Clear
3:35 PM 55.4 °F - 30.2 °F 38% 29.89 in 10.0 mi Calm Calm - N/A   Clear
3:55 PM 55.4 °F - 30.2 °F 38% 29.89 in 10.0 mi West 5.8 mph - N/A   Clear
4:15 PM 55.4 °F - 28.4 °F 36% 29.89 in 10.0 mi Calm Calm - N/A   Clear
4:35 PM 51.8 °F - 30.2 °F 44% 29.88 in 10.0 mi Calm Calm - N/A   Clear
4:55 PM 46.4 °F - 30.2 °F 53% 29.89 in 10.0 mi Calm Calm - N/A   Clear
5:15 PM 46.4 °F - 30.2 °F 53% 29.90 in 10.0 mi Calm Calm - N/A   Clear
5:35 PM 44.6 °F - 30.2 °F 57% 29.89 in 10.0 mi Calm Calm - N/A   Clear
5:55 PM 41.0 °F - 30.2 °F 65% 29.90 in 10.0 mi Calm Calm - N/A   Clear
6:15 PM 39.2 °F - 30.2 °F 70% 29.90 in 10.0 mi Calm Calm - N/A   Clear
6:35 PM 41.0 °F - 30.2 °F 65% 29.91 in 10.0 mi Calm Calm - N/A   Clear
7:15 PM 35.6 °F 32.8 °F 30.2 °F 81% 29.91 in 10.0 mi NNE 3.5 mph - N/A   Clear
7:35 PM 35.6 °F 31.7 °F 30.2 °F 81% 29.91 in 10.0 mi North 4.6 mph - N/A   Clear
7:55 PM 39.2 °F - 30.2 °F 70% 29.91 in 10.0 mi Calm Calm - N/A   Clear
8:15 PM 37.4 °F - 30.2 °F 75% 29.92 in 10.0 mi Calm Calm - N/A   Partly Cloudy
8:35 PM 39.2 °F - 32.0 °F 75% 29.92 in 10.0 mi Calm Calm - N/A   Clear
8:55 PM 39.2 °F - 32.0 °F 75% 29.93 in 10.0 mi Calm Calm - N/A   Clear
9:15 PM 39.2 °F 37.0 °F 32.0 °F 75% 29.93 in 10.0 mi NNE 3.5 mph - N/A   Clear
9:35 PM 37.4 °F - 32.0 °F 81% 29.94 in 10.0 mi Calm Calm - N/A   Clear
9:55 PM 39.2 °F 35.0 °F 32.0 °F 75% 29.94 in 10.0 mi East 5.8 mph - N/A   Clear
10:15 PM 39.2 °F - 33.8 °F 81% 29.94 in 10.0 mi Calm Calm - N/A   Clear
10:35 PM 39.2 °F 35.9 °F 33.8 °F 81% 29.94 in 10.0 mi East 4.6 mph - N/A   Clear
10:55 PM 39.2 °F 35.9 °F 33.8 °F 81% 29.95 in 10.0 mi ESE 4.6 mph - N/A   Clear
11:15 PM 39.2 °F 35.0 °F 33.8 °F 81% 29.95 in 10.0 mi ESE 5.8 mph 11.5 mph N/A   Clear
11:35 PM 39.2 °F 35.9 °F 33.8 °F 81% 29.95 in 10.0 mi ESE 4.6 mph - N/A   Mostly Cloudy
11:55 PM 39.2 °F 35.9 °F 33.8 °F 81% 29.95 in 10.0 mi East 4.6 mph - N/A   Partly Cloudy